Regional Weather Roundup
Issued by NWS Tiyan, Guam

Home | Current Version | Previous Version | Text Only | Print | Product List | Glossary On
Versions: 1 2 3 4 5 6 7 8 9 10 11 12 13 14 15 16 17 18 19 20 21 22 23 24 25 26 27
000
ASGM40 PGUM 261012
RWRGUM
WEATHER ROUNDUP FOR THE MARIANAS
NATIONAL WEATHER SERVICE TIYAN GU
800 PM CHST MON JUN 26 2017

GUZ001>004-261100-
MARIANA ISLANDS-

CITY           SKY/WX    TMP DP  RH WIND       PRES   REMARKS
GUAM AIRPORT   CLEAR     82  79  89 E5        29.89R HX  93
ANDERSEN AFB   MOCLDY    81  77  89 SE6       29.90R
ROTA AIRPORT   PTCLDY    82  77  83 E13       29.89R HX  91
TINIAN AP      LGT RAIN  79  75  89 SE14      29.88R
SAIPAN AP      MOCLDY    84  79  84 E12       29.88R HX  96

$$





USA.gov is the U.S. government's official web portal to all federal, state and local government web resources and services.